Wind_Speed
34 36 43 54 55 53 54 50 51 52 50 50 49 44 41 37 34 30 25 19 16 15 12 8 6 3 1 3 5 5 6 6 5 7 10 14 17 19 20 24 23 23 24
32 35 43 43 49 49 49 49 52 52 50 53 51 48 41 40 37 30 23 16 17 14 12 9 5 3 3 5 6 6 7 8 8 10 14 17 19 22 25 26 24 24 24
32 37 38 42 49 50 47 47 48 50 51 50 53 47 42 42 37 26 22 21 19 14 11 8 7 6 5 6 6 6 8 8 10 14 16 20 22 25 26 26 28 27 26
29 37 37 42 47 48 45 46 47 51 51 47 47 44 43 38 30 27 23 23 18 15 12 11 10 7 6 7 7 8 8 9 11 14 18 22 27 29 29 34 35 31 30
30 34 37 39 43 42 43 45 49 49 50 46 48 43 42 34 29 29 26 21 17 16 15 13 10 8 7 7 8 9 9 11 14 18 22 26 29 31 33 35 37 41 33
32 34 35 37 39 41 44 49 52 51 47 53 42 45 42 33 29 27 22 21 19 16 15 13 11 10 10 10 10 11 12 14 17 21 25 26 26 28 30 33 37 42 39
44 44 33 37 35 42 48 47 55 48 43 46 55 47 39 37 30 24 21 21 20 17 15 13 13 13 11 11 11 11 12 15 19 23 24 24 24 27 29 31 32 32 32
47 46 36 38 39 55 53 53 52 50 47 46 34 36 36 33 28 24 22 22 21 21 18 15 14 14 13 11 10 10 14 16 21 22 20 19 20 24 24 26 29 30 32
40 44 43 47 48 63 60 61 54 49 41 40 40 38 34 31 26 23 23 25 24 23 21 18 15 15 14 13 12 14 14 18 20 19 18 17 17 20 23 26 29 33 37
47 48 47 47 53 66 67 66 61 56 44 44 41 34 33 31 24 25 23 23 24 24 22 19 17 17 16 15 15 15 18 21 19 18 18 19 21 22 23 23 25 29 31
50 53 58 56 57 67 69 66 65 56 53 46 44 37 31 29 28 23 21 22 22 24 21 20 19 17 17 17 18 20 21 18 20 20 21 22 23 23 24 23 24 24 26
57 61 59 54 57 71 64 61 59 60 55 50 46 41 35 31 28 25 22 21 20 20 22 20 17 17 17 18 19 19 16 19 19 21 24 26 26 27 26 26 26 22 22
49 56 65 72 67 61 59 62 60 60 54 51 49 46 39 34 32 28 26 22 20 21 21 19 16 18 16 17 19 19 18 20 21 23 25 25 25 26 26 28 30 27 29
64 61 61 61 55 57 61 60 56 57 55 52 49 46 41 37 33 28 26 23 21 21 19 17 17 18 16 20 20 19 21 21 22 23 23 25 26 28 30 33 36 36 39
58 54 57 61 63 62 57 53 54 50 48 47 45 43 41 37 31 27 23 22 20 18 18 17 18 15 21 20 18 20 19 19 21 23 25 28 30 30 32 35 37 39 41
55 57 62 64 61 57 54 50 44 43 41 38 38 38 36 33 29 25 21 19 17 15 17 19 17 21 20 18 18 19 18 19 22 25 27 29 30 31 33 36 38 40 42
57 57 56 57 56 54 52 51 51 42 38 37 36 36 33 33 26 24 23 22 16 13 19 18 21 19 19 17 16 17 18 21 23 24 26 28 29 31 35 37 39 41 43
52 54 56 56 55 54 54 54 52 50 46 42 35 33 30 27 25 22 22 20 21 20 19 20 18 16 17 14 15 18 20 21 22 24 25 27 29 32 35 37 39 41 43
51 52 53 52 51 52 52 50 48 47 47 45 39 31 25 23 22 21 17 19 20 20 18 16 16 16 13 14 17 20 20 20 21 23 25 28 31 32 34 35 37 39 40
51 52 52 51 50 48 48 49 49 47 46 42 37 33 29 26 25 22 20 20 20 17 14 15 15 14 13 16 17 17 17 19 20 23 26 28 30 31 33 34 36 39 40
48 49 47 44 42 45 46 45 43 42 40 36 32 25 21 22 23 20 20 18 16 14 13 12 12 14 16 16 16 16 17 18 20 23 26 28 30 30 31 31 33 37 38
37 38 38 42 44 43 43 41 39 38 35 32 27 21 18 20 20 19 18 16 14 14 13 11 12 15 15 15 15 15 17 19 22 24 26 28 29 29 30 31 32 35 38
34 37 40 42 43 42 39 37 34 33 31 28 26 23 20 20 19 19 18 17 15 14 13 12 13 14 14 15 15 15 18 21 24 26 26 27 28 28 29 29 30 33 36
32 35 37 40 39 37 34 32 29 27 26 26 24 22 20 20 19 18 18 16 14 14 14 13 13 14 15 15 14 16 19 22 24 25 26 26 27 27 27 27 27 30 32
32 35 36 36 34 32 31 30 28 26 23 22 21 21 21 20 19 17 17 14 13 12 13 12 12 14 14 14 14 16 18 21 23 24 25 25 25 24 24 24 24 27 29
30 31 31 30 31 32 32 28 25 23 22 21 22 22 19 17 16 14 12 11 10 10 10 10 10 13 14 15 16 16 18 20 22 24 25 24 24 23 22 21 22 25 27
Wind_Direction
230 229 230 227 226 228 230 226 224 221 213 205 203 200 198 198 196 197 194 182 196 193 193 198 207 217 326 20 26 24 14 5 359 342 343 343 346 345 343 346 350 353 350
227 224 226 227 227 228 224 223 224 218 212 203 201 198 194 192 188 188 190 186 192 188 187 188 180 127 89 57 43 20 15 8 358 356 351 353 353 349 350 347 353 359 355
228 216 218 220 224 221 222 218 214 214 210 202 201 192 190 187 181 180 187 186 181 185 177 164 133 119 92 68 42 29 23 13 3 358 359 354 352 349 348 348 354 359 355
228 212 208 215 219 217 214 211 212 210 209 202 187 183 188 180 172 177 178 176 176 170 153 138 124 114 80 62 44 30 29 11 4 2 1 358 354 353 354 351 350 358 353
213 206 202 216 216 207 204 202 195 201 207 196 182 181 177 170 170 173 170 169 167 152 139 132 122 104 82 54 53 46 29 14 8 7 3 1 354 355 358 352 348 347 356
208 211 203 206 203 199 198 190 180 180 191 190 184 170 166 164 165 168 165 160 149 140 132 123 110 92 75 65 50 39 25 18 10 10 4 358 356 355 353 350 349 349 352
210 212 201 198 189 187 183 174 179 182 161 171 162 162 157 154 162 155 156 147 138 129 118 113 108 96 84 65 50 38 23 16 14 13 360 1 354 353 347 346 349 345 347
212 210 196 186 175 176 180 175 164 160 157 141 153 151 151 145 151 151 153 141 130 121 115 111 103 96 84 70 60 48 35 26 22 15 4 6 357 348 347 348 342 342 352
199 184 183 174 175 165 172 171 173 159 146 149 154 149 148 143 148 151 149 136 129 124 118 110 101 94 80 75 60 51 45 36 25 18 11 12 4 358 352 349 351 356 354
167 166 167 161 175 172 164 159 141 139 152 151 145 145 146 142 144 144 142 134 133 123 117 109 97 85 78 71 58 48 42 34 27 24 21 17 13 8 3 2 359 3 359
147 153 149 153 159 161 149 142 142 153 147 145 141 140 138 136 136 138 137 136 130 124 115 103 87 77 70 60 52 43 40 34 29 23 20 19 16 12 11 12 16 12 1
139 146 148 148 139 139 143 142 151 143 146 142 136 132 130 132 133 133 134 132 126 119 111 100 88 76 65 59 53 51 38 35 27 23 23 21 17 13 14 17 18 20 19
127 132 140 138 138 142 143 144 142 144 141 137 137 134 133 132 130 132 136 131 128 113 103 96 91 76 67 60 55 45 37 33 27 26 27 23 20 15 10 17 20 18 24
120 125 127 129 139 144 144 144 141 139 141 141 140 137 136 137 137 140 139 137 122 109 108 101 88 74 67 58 50 42 36 30 27 28 25 22 21 16 16 20 18 18 17
130 134 135 142 143 139 136 136 142 139 145 146 144 142 140 140 142 144 142 134 120 109 111 102 84 82 64 54 49 43 36 32 28 27 23 20 20 16 19 22 19 21 21
136 130 134 136 137 140 138 134 138 142 141 142 140 138 136 134 140 140 132 116 116 123 109 92 85 67 61 52 45 41 36 31 28 24 22 19 19 17 19 22 21 23 22
140 135 134 136 135 135 135 134 131 132 133 134 137 139 137 135 136 132 129 117 112 120 90 87 72 65 58 49 44 40 36 30 25 21 19 18 18 19 21 21 20 20 23
133 133 135 136 136 136 135 134 134 134 132 131 131 133 133 133 131 128 117 123 112 93 88 76 71 67 60 53 47 42 35 25 19 19 18 19 20 19 20 21 21 20 21
134 135 134 134 134 134 135 135 134 133 130 129 129 129 130 126 122 111 119 102 97 88 79 83 76 68 63 54 46 39 30 22 16 15 17 17 20 20 21 21 21 22 22
128 132 134 135 137 137 137 135 135 133 132 133 134 134 137 129 118 112 103 96 89 90 91 86 78 69 60 53 46 39 31 24 17 14 16 16 18 20 20 19 21 21 23
129 130 131 131 135 136 135 135 135 134 134 134 130 128 124 119 114 109 102 98 95 91 90 91 75 60 52 48 44 36 31 26 19 17 16 16 15 18 22 19 21 22 22
126 128 133 135 137 137 137 137 136 132 128 124 126 127 124 115 118 117 111 103 100 96 91 81 68 54 48 42 39 32 28 24 22 20 16 14 14 16 18 20 20 21 21
127 131 136 137 136 137 135 134 133 131 129 128 125 124 130 124 121 117 118 110 98 92 84 73 59 48 42 37 34 28 26 23 21 17 15 13 13 16 16 18 19 19 20
132 134 136 136 137 136 135 134 130 126 125 126 131 131 129 126 124 122 110 100 94 86 75 63 54 43 35 30 28 25 24 22 19 15 13 12 12 14 15 17 19 18 18
133 135 136 137 138 137 136 137 133 129 131 132 134 136 132 128 121 110 101 91 87 81 69 54 42 34 30 26 25 25 22 19 17 15 13 12 11 12 14 16 18 17 19
135 138 139 140 143 142 141 138 133 133 135 137 139 133 128 122 113 107 99 87 80 74 58 43 33 24 22 21 21 20 18 16 15 13 12 10 9 11 13 14 16 16 17
Height
1376 1381 1385 1390 1391 1400 1410 1420 1427 1431 1435 1442 1448 1452 1457 1463 1474 1483 1488 1488 1493 1495 1498 1499 1498 1497 1497 1496 1496 1497 1495 1494 1493 1492 1488 1484 1479 1476 1473 1468 1461 1453 1447
1366 1371 1378 1382 1386 1395 1402 1410 1418 1423 1431 1436 1444 1452 1454 1461 1467 1478 1486 1486 1494 1496 1497 1497 1496 1496 1497 1495 1496 1496 1494 1494 1494 1490 1487 1482 1477 1474 1470 1465 1458 1451 1445
1356 1359 1365 1375 1382 1389 1395 1402 1411 1419 1425 1435 1438 1445 1454 1458 1464 1473 1483 1487 1493 1497 1498 1496 1495 1496 1495 1494 1495 1495 1494 1494 1493 1490 1484 1481 1476 1470 1466 1462 1456 1449 1445
1345 1350 1357 1367 1375 1384 1390 1396 1405 1413 1421 1432 1425 1435 1448 1458 1462 1472 1478 1489 1493 1496 1495 1495 1495 1495 1495 1494 1494 1494 1493 1493 1491 1488 1482 1477 1474 1470 1462 1457 1450 1446 1442
1341 1344 1348 1359 1369 1380 1387 1394 1402 1409 1421 1427 1428 1426 1449 1460 1463 1472 1481 1487 1493 1494 1494 1494 1496 1494 1493 1494 1492 1494 1493 1493 1490 1484 1480 1475 1472 1466 1459 1455 1448 1440 1441
1332 1338 1344 1353 1364 1375 1385 1391 1399 1408 1416 1422 1428 1434 1447 1460 1467 1478 1482 1487 1491 1493 1493 1495 1496 1495 1494 1493 1493 1493 1493 1491 1488 1482 1479 1475 1473 1466 1460 1456 1447 1438 1432
1324 1330 1335 1347 1357 1370 1378 1388 1395 1406 1414 1420 1427 1435 1451 1454 1476 1479 1486 1489 1489 1492 1493 1496 1497 1496 1495 1493 1493 1492 1494 1491 1486 1481 1482 1475 1473 1467 1463 1457 1451 1447 1441
1311 1321 1332 1342 1351 1364 1373 1387 1396 1406 1422 1409 1433 1447 1462 1466 1472 1482 1488 1488 1489 1492 1496 1498 1499 1499 1498 1497 1496 1495 1493 1492 1485 1481 1485 1477 1475 1471 1465 1458 1453 1448 1438
1304 1315 1327 1335 1347 1348 1366 1379 1392 1407 1420 1430 1446 1453 1460 1475 1478 1484 1488 1488 1490 1494 1496 1500 1501 1499 1498 1498 1498 1496 1495 1492 1488 1487 1486 1480 1479 1473 1466 1459 1453 1443 1434
1297 1308 1318 1327 1342 1356 1361 1371 1391 1403 1425 1434 1444 1454 1473 1479 1483 1486 1488 1486 1495 1493 1500 1502 1502 1500 1500 1500 1497 1499 1492 1493 1491 1491 1487 1483 1479 1474 1469 1462 1455 1444 1440
1299 1304 1319 1339 1350 1356 1366 1372 1383 1407 1416 1440 1447 1467 1479 1482 1483 1489 1492 1494 1496 1497 1502 1503 1503 1502 1500 1500 1497 1497 1495 1494 1490 1491 1488 1483 1479 1476 1470 1464 1456 1449 1445
1302 1310 1324 1340 1352 1351 1371 1379 1398 1394 1429 1443 1450 1465 1476 1485 1488 1490 1496 1503 1503 1501 1502 1504 1505 1504 1504 1502 1499 1496 1503 1492 1493 1493 1488 1485 1481 1476 1472 1465 1458 1454 1448
1317 1326 1336 1345 1358 1369 1374 1390 1401 1412 1428 1439 1450 1464 1477 1485 1487 1495 1505 1505 1505 1504 1504 1507 1508 1504 1507 1505 1500 1501 1500 1496 1496 1492 1489 1487 1481 1477 1473 1466 1459 1455 1447
1329 1340 1349 1356 1371 1382 1393 1408 1416 1414 1431 1446 1455 1466 1476 1484 1492 1502 1506 1509 1506 1505 1507 1511 1509 1503 1510 1503 1501 1505 1501 1502 1500 1497 1494 1490 1484 1477 1472 1464 1458 1450 1441
1344 1354 1359 1371 1380 1389 1404 1416 1424 1429 1442 1452 1464 1472 1479 1489 1498 1503 1508 1510 1506 1506 1511 1512 1506 1513 1503 1505 1508 1506 1506 1506 1504 1499 1494 1489 1484 1480 1473 1466 1459 1450 1442
1354 1364 1372 1382 1393 1404 1414 1427 1439 1450 1457 1470 1475 1480 1488 1496 1504 1509 1510 1507 1510 1515 1513 1508 1516 1507 1508 1513 1513 1510 1511 1509 1503 1499 1496 1493 1486 1481 1474 1467 1460 1452 1444
1371 1380 1388 1397 1410 1420 1431 1441 1448 1465 1475 1484 1487 1491 1497 1502 1507 1510 1511 1509 1517 1517 1509 1518 1511 1513 1515 1518 1520 1517 1514 1509 1504 1501 1498 1497 1491 1484 1475 1467 1461 1454 1446
1385 1395 1402 1412 1421 1431 1439 1449 1459 1465 1474 1485 1495 1500 1506 1508 1510 1512 1508 1519 1516 1513 1519 1513 1519 1520 1519 1525 1523 1517 1514 1512 1510 1506 1501 1497 1492 1484 1476 1470 1463 1456 1449
1397 1404 1413 1423 1431 1439 1449 1457 1465 1474 1479 1488 1497 1504 1509 1512 1514 1512 1520 1518 1518 1518 1520 1525 1526 1524 1529 1527 1522 1516 1516 1515 1514 1511 1505 1499 1492 1485 1479 1473 1467 1461 1453
1413 1421 1427 1435 1445 1453 1461 1467 1475 1480 1484 1492 1499 1506 1512 1513 1512 1517 1520 1520 1520 1526 1532 1531 1531 1532 1532 1525 1521 1521 1520 1519 1518 1514 1507 1499 1493 1488 1482 1476 1470 1463 1457
1429 1433 1440 1446 1453 1460 1468 1475 1482 1487 1493 1501 1505 1509 1512 1513 1515 1520 1523 1526 1530 1533 1534 1536 1537 1535 1531 1526 1525 1525 1523 1521 1519 1514 1507 1500 1495 1490 1485 1479 1474 1468 1462
1440 1444 1451 1457 1463 1470 1478 1486 1492 1495 1498 1501 1507 1512 1515 1517 1521 1526 1530 1532 1536 1537 1538 1539 1538 1535 1533 1532 1529 1529 1526 1523 1518 1512 1507 1502 1497 1492 1486 1482 1477 1472 1467
1450 1455 1463 1469 1474 1481 1487 1492 1497 1501 1506 1509 1511 1515 1524 1524 1527 1531 1538 1539 1538 1539 1538 1540 1537 1538 1537 1534 1532 1531 1527 1522 1516 1512 1508 1504 1499 1493 1489 1485 1480 1476 1471
1460 1465 1472 1477 1483 1488 1494 1499 1501 1506 1511 1514 1520 1524 1528 1531 1535 1539 1539 1539 1541 1539 1541 1541 1542 1540 1539 1537 1535 1531 1526 1522 1517 1514 1510 1505 1500 1496 1492 1489 1484 1481 1476
1470 1475 1482 1486 1490 1495 1499 1507 1511 1514 1519 1522 1526 1529 1531 1536 1538 1538 1540 1542 1543 1544 1544 1545 1544 1543 1541 1539 1535 1530 1526 1522 1519 1515 1511 1507 1502 1499 1496 1492 1488 1485 1481
1483 1487 1493 1495 1500 1505 1509 1514 1518 1521 1522 1527 1532 1533 1535 1538 1537 1539 1543 1546 1545 1546 1547 1547 1546 1544 1541 1538 1534 1531 1528 1523 1520 1516 1512 1508 1505 1501 1498 1494 1492 1489 1485